| time (UTC) | temp C | wind direction | speed KPH | gust KPH | rain 1hr cm | rain 24hr cm | rain mn cm | humidity % | barometer mb |
| 20260506084502 | 12 | 211 | 22.5 | 46.7 | 0.00 | 0.00 | 0.00 | 91 | 1015.3 |
| 20260506084005 | 11 | 209 | 22.5 | 37.0 | 0.00 | 0.00 | 0.00 | 90 | 1015.3 |
| 20260506083502 | 11 | 203 | 22.5 | 37.0 | 0.00 | 0.00 | 0.00 | 90 | 1015.3 |
| 20260506083003 | 11 | 202 | 24.1 | 37.0 | 0.00 | 0.00 | 0.00 | 90 | 1015.3 |
| 20260506082503 | 12 | 205 | 22.5 | 43.5 | 0.00 | 0.00 | 0.00 | 90 | 1015.2 |
| 20260506082023 | 12 | 209 | 19.3 | 43.5 | 0.00 | 0.00 | 0.00 | 89 | 1015.2 |
| 20260506081502 | 12 | 211 | 20.9 | 38.6 | 0.00 | 0.00 | 0.00 | 89 | 1015.5 |
| 20260506081002 | 12 | 210 | 20.9 | 37.0 | 0.00 | 0.00 | 0.00 | 89 | 1015.5 |
| 20260506080502 | 12 | 211 | 20.9 | 37.0 | 0.00 | 0.00 | 0.00 | 89 | 1015.5 |
| 20260506073524 | 12 | 214 | 25.7 | 48.3 | 0.00 | 0.00 | 0.00 | 88 | 1015.5 |
| 20260506073003 | 12 | 213 | 24.1 | 46.7 | 0.00 | 0.00 | 0.00 | 88 | 1015.3 |
| 20260506072524 | 12 | 216 | 25.7 | 46.7 | 0.00 | 0.00 | 0.00 | 87 | 1015.3 |
| 20260506072003 | 12 | 216 | 25.7 | 43.5 | 0.00 | 0.00 | 0.00 | 87 | 1015.4 |
| 20260506071503 | 12 | 218 | 20.9 | 41.8 | 0.00 | 0.00 | 0.00 | 87 | 1015.4 |
| 20260506071002 | 12 | 220 | 17.7 | 35.4 | 0.00 | 0.00 | 0.00 | 87 | 1015.5 |
| 20260506070502 | 12 | 220 | 19.3 | 38.6 | 0.00 | 0.00 | 0.00 | 86 | 1015.5 |
| 20260506062503 | 12 | 222 | 19.3 | 33.8 | 0.00 | 0.00 | 0.00 | 86 | 1015.7 |
| 20260506062003 | 12 | 222 | 20.9 | 48.3 | 0.00 | 0.00 | 0.00 | 86 | 1015.7 |
| 20260506061503 | 12 | 221 | 22.5 | 48.3 | 0.00 | 0.00 | 0.00 | 86 | 1015.7 |
| 20260506061002 | 12 | 219 | 24.1 | 41.8 | 0.00 | 0.00 | 0.00 | 86 | 1015.7 |
| 20260506060524 | 12 | 216 | 24.1 | 46.7 | 0.00 | 0.00 | 0.00 | 86 | 1015.7 |
| 20260506051002 | 12 | 223 | 27.4 | 48.3 | 0.00 | 0.00 | 0.00 | 87 | 1015.3 |
| 20260506050502 | 12 | 221 | 27.4 | 48.3 | 0.00 | 0.00 | 0.00 | 87 | 1015.3 |
| 20260506045002 | 12 | 220 | 25.7 | 41.8 | 0.00 | 0.00 | 0.00 | 88 | 1015.2 |
| 20260506044502 | 12 | 218 | 27.4 | 46.7 | 0.00 | 0.00 | 0.00 | 88 | 1015.2 |
| 20260506044002 | 12 | 217 | 27.4 | 48.3 | 0.00 | 0.00 | 0.00 | 88 | 1015.3 |
| 20260506043503 | 12 | 218 | 27.4 | 48.3 | 0.00 | 0.00 | 0.00 | 88 | 1015.4 |
| 20260506043003 | 12 | 217 | 27.4 | 48.3 | 0.00 | 0.00 | 0.00 | 88 | 1015.2 |
| 20260506042503 | 12 | 217 | 25.7 | 48.3 | 0.00 | 0.00 | 0.00 | 88 | 1015.3 |
| 20260506042003 | 12 | 218 | 25.7 | 45.1 | 0.00 | 0.00 | 0.00 | 88 | 1015.3 |
| 20260506041503 | 12 | 218 | 25.7 | 46.7 | 0.00 | 0.00 | 0.00 | 88 | 1015.3 |
| 20260506041023 | 12 | 215 | 24.1 | 46.7 | 0.00 | 0.00 | 0.00 | 87 | 1015.3 |
| 20260506040502 | 12 | 212 | 24.1 | 48.3 | 0.00 | 0.00 | 0.00 | 87 | 1015.1 |
| 20260506040003 | 12 | 216 | 22.5 | 48.3 | 0.00 | 0.00 | 0.00 | 87 | 1015.2 |
| 20260506035524 | 12 | 219 | 22.5 | 45.1 | 0.00 | 0.00 | 0.00 | 88 | 1015.2 |
| 20260506035005 | 11 | 223 | 24.1 | 45.1 | 0.00 | 0.00 | 0.00 | 87 | 1015.2 |
| 20260506034503 | 11 | 222 | 25.7 | 43.5 | 0.00 | 0.00 | 0.00 | 87 | 1015.2 |
| 20260506034003 | 11 | 219 | 27.4 | 49.9 | 0.00 | 0.00 | 0.00 | 87 | 1015.1 |
| 20260506033503 | 11 | 217 | 27.4 | 49.9 | 0.00 | 0.00 | 0.00 | 88 | 1015.1 |
| 20260506033002 | 11 | 218 | 25.7 | 46.7 | 0.00 | 0.00 | 0.00 | 88 | 1015.1 |
| 20260506032503 | 11 | 220 | 25.7 | 51.5 | 0.00 | 0.00 | 0.00 | 88 | 1015.3 |
| 20260506032003 | 11 | 217 | 25.7 | 51.5 | 0.00 | 0.00 | 0.00 | 88 | 1015.1 |
| 20260506031503 | 11 | 214 | 25.7 | 45.1 | 0.00 | 0.00 | 0.00 | 88 | 1015.1 |
| 20260506031003 | 11 | 212 | 25.7 | 46.7 | 0.00 | 0.00 | 0.00 | 89 | 1015.2 |
| 20260506030502 | 11 | 211 | 25.7 | 46.7 | 0.00 | 0.00 | 0.00 | 89 | 1015.0 |
| 20260506030003 | 11 | 211 | 24.1 | 43.5 | 0.00 | 0.00 | 0.00 | 89 | 1015.2 |
| 20260506025502 | 11 | 211 | 25.7 | 43.5 | 0.00 | 0.00 | 0.00 | 89 | 1015.2 |
| 20260506025024 | 11 | 212 | 27.4 | 43.5 | 0.00 | 0.00 | 0.00 | 89 | 1015.2 |
| 20260506024503 | 11 | 212 | 25.7 | 43.5 | 0.00 | 0.00 | 0.00 | 89 | 1015.1 |
| 20260506024003 | 11 | 212 | 25.7 | 40.2 | 0.00 | 0.00 | 0.00 | 89 | 1015.1 |
| 20260506023503 | 11 | 211 | 25.7 | 41.8 | 0.00 | 0.00 | 0.00 | 89 | 1015.1 |
| 20260506023003 | 11 | 209 | 25.7 | 43.5 | 0.00 | 0.00 | 0.00 | 89 | 1015.0 |
| 20260506022503 | 11 | 209 | 27.4 | 45.1 | 0.00 | 0.00 | 0.00 | 89 | 1015.0 |
| 20260506022002 | 11 | 208 | 27.4 | 53.1 | 0.00 | 0.00 | 0.00 | 89 | 1014.9 |
| 20260506021503 | 11 | 209 | 29.0 | 53.1 | 0.00 | 0.00 | 0.00 | 89 | 1014.9 |
| 20260506021002 | 11 | 214 | 27.4 | 49.9 | 0.00 | 0.00 | 0.00 | 89 | 1015.1 |
| 20260506020503 | 11 | 215 | 29.0 | 46.7 | 0.00 | 0.00 | 0.00 | 89 | 1015.0 |
| 20260506020003 | 11 | 212 | 29.0 | 48.3 | 0.00 | 0.00 | 0.00 | 89 | 1015.1 |
| 20260506015503 | 11 | 210 | 25.7 | 48.3 | 0.00 | 0.00 | 0.00 | 89 | 1015.1 |
| 20260506015002 | 11 | 209 | 24.1 | 45.1 | 0.00 | 0.00 | 0.00 | 89 | 1015.1 |
| 20260506014524 | 11 | 211 | 24.1 | 43.5 | 0.00 | 0.00 | 0.00 | 89 | 1015.0 |
| 20260506014003 | 11 | 213 | 24.1 | 43.5 | 0.00 | 0.00 | 0.00 | 89 | 1015.0 |
| 20260506013503 | 11 | 216 | 25.7 | 41.8 | 0.00 | 0.00 | 0.00 | 89 | 1015.0 |
| 20260506013002 | 11 | 218 | 22.5 | 41.8 | 0.00 | 0.00 | 0.00 | 90 | 1014.9 |
| 20260506012502 | 11 | 215 | 20.9 | 37.0 | 0.00 | 0.00 | 0.00 | 90 | 1014.8 |
| 20260506012002 | 11 | 216 | 22.5 | 41.8 | 0.00 | 0.00 | 0.00 | 90 | 1014.8 |
| 20260506011503 | 11 | 218 | 24.1 | 41.8 | 0.00 | 0.00 | 0.00 | 90 | 1014.8 |
| 20260506011024 | 10 | 212 | 25.7 | 41.8 | 0.00 | 0.00 | 0.00 | 90 | 1014.5 |
| 20260506010503 | 10 | 209 | 25.7 | 43.5 | 0.00 | 0.00 | 0.00 | 90 | 1014.5 |
| 20260506010002 | 10 | 211 | 24.1 | 43.5 | 0.00 | 0.00 | 0.00 | 90 | 1014.4 |
| 20260506005503 | 10 | 212 | 22.5 | 38.6 | 0.00 | 0.00 | 0.00 | 89 | 1014.4 |
| 20260506005003 | 10 | 214 | 24.1 | 45.1 | 0.00 | 0.00 | 0.00 | 89 | 1014.4 |
| 20260506004503 | 10 | 214 | 25.7 | 45.1 | 0.00 | 0.00 | 0.00 | 89 | 1014.2 |
| 20260506004003 | 10 | 213 | 25.7 | 45.1 | 0.00 | 0.00 | 0.00 | 88 | 1014.1 |
| 20260506003503 | 11 | 213 | 22.5 | 45.1 | 0.00 | 0.00 | 0.00 | 88 | 1014.2 |
| 20260506003003 | 11 | 211 | 22.5 | 38.6 | 0.00 | 0.00 | 0.00 | 87 | 1014.0 |
| 20260506002503 | 11 | 212 | 24.1 | 46.7 | 0.00 | 0.00 | 0.00 | 86 | 1013.9 |
| 20260506002003 | 11 | 211 | 24.1 | 46.7 | 0.00 | 0.00 | 0.00 | 86 | 1013.8 |
| 20260506001503 | 11 | 212 | 24.1 | 40.2 | 0.00 | 0.00 | 0.00 | 85 | 1013.8 |
| 20260506001003 | 11 | 215 | 24.1 | 41.8 | 0.00 | 0.00 | 0.00 | 84 | 1013.7 |
| 20260506000503 | 11 | 216 | 24.1 | 41.8 | 0.00 | 0.00 | 0.00 | 83 | 1013.7 |
| 20260506000025 | 11 | 216 | 22.5 | 40.2 | 0.00 | 0.00 | 0.00 | 83 | 1013.7 |
| 20260505235503 | 12 | 213 | 22.5 | 38.6 | 0.00 | 0.00 | 0.00 | 81 | 1013.7 |
| 20260505235003 | 12 | 212 | 24.1 | 46.7 | 0.00 | 0.00 | 0.00 | 80 | 1013.6 |
| 20260505234504 | 12 | 212 | 24.1 | 46.7 | 0.00 | 0.00 | 0.00 | 79 | 1013.5 |
| 20260505234003 | 12 | 217 | 24.1 | 45.1 | 0.00 | 0.00 | 0.00 | 78 | 1013.4 |
| 20260505233503 | 12 | 216 | 24.1 | 46.7 | 0.00 | 0.00 | 0.00 | 77 | 1013.5 |
| 20260505233003 | 13 | 211 | 25.7 | 46.7 | 0.00 | 0.00 | 0.00 | 76 | 1013.3 |
| 20260505232524 | 13 | 209 | 25.7 | 46.7 | 0.00 | 0.00 | 0.00 | 75 | 1013.3 |
| 20260505232003 | 13 | 207 | 25.7 | 43.5 | 0.00 | 0.00 | 0.00 | 75 | 1013.1 |
| 20260505231503 | 13 | 210 | 24.1 | 43.5 | 0.00 | 0.00 | 0.00 | 74 | 1013.2 |
| 20260505231003 | 13 | 213 | 22.5 | 43.5 | 0.00 | 0.00 | 0.00 | 72 | 1013.2 |
| 20260505230506 | 14 | 214 | 22.5 | 41.8 | 0.00 | 0.00 | 0.00 | 71 | 1013.0 |
| 20260505230003 | 14 | 213 | 22.5 | 48.3 | 0.00 | 0.00 | 0.00 | 69 | 1013.0 |
| 20260505225503 | 15 | 210 | 22.5 | 48.3 | 0.00 | 0.00 | 0.00 | 68 | 1012.9 |
| 20260505225003 | 15 | 211 | 22.5 | 37.0 | 0.00 | 0.00 | 0.00 | 66 | 1013.0 |
| 20260505224503 | 15 | 209 | 20.9 | 48.3 | 0.00 | 0.00 | 0.00 | 65 | 1013.0 |
| 20260505224003 | 15 | 207 | 20.9 | 48.3 | 0.00 | 0.00 | 0.00 | 63 | 1013.0 |
| 20260505223503 | 16 | 204 | 22.5 | 38.6 | 0.00 | 0.00 | 0.00 | 62 | 1013.0 |
| 20260505223003 | 16 | 203 | 22.5 | 48.3 | 0.00 | 0.00 | 0.00 | 59 | 1012.8 |
| 20260505222524 | 16 | 208 | 24.1 | 48.3 | 0.00 | 0.00 | 0.00 | 57 | 1012.7 |
| 20260505222003 | 17 | 214 | 29.0 | 51.5 | 0.00 | 0.00 | 0.00 | 56 | 1012.7 |
| 20260505221502 | 17 | 214 | 29.0 | 51.5 | 0.00 | 0.00 | 0.00 | 56 | 1012.9 |
| 20260505221003 | 17 | 208 | 22.5 | 46.7 | 0.00 | 0.00 | 0.00 | 55 | 1012.6 |
| 20260505220503 | 17 | 207 | 20.9 | 41.8 | 0.00 | 0.00 | 0.00 | 54 | 1012.6 |
| 20260505220002 | 18 | 213 | 22.5 | 40.2 | 0.00 | 0.00 | 0.00 | 53 | 1012.5 |
| 20260505215503 | 18 | 213 | 25.7 | 46.7 | 0.00 | 0.00 | 0.00 | 52 | 1012.6 |
| 20260505215003 | 18 | 212 | 24.1 | 46.7 | 0.00 | 0.00 | 0.00 | 51 | 1012.5 |
| 20260505214503 | 18 | 214 | 22.5 | 48.3 | 0.00 | 0.00 | 0.00 | 51 | 1012.4 |
| 20260505214003 | 18 | 218 | 22.5 | 51.5 | 0.00 | 0.00 | 0.00 | 49 | 1012.3 |
| 20260505213503 | 18 | 223 | 24.1 | 51.5 | 0.00 | 0.00 | 0.00 | 49 | 1012.3 |
| 20260505213003 | 18 | 226 | 27.4 | 49.9 | 0.00 | 0.00 | 0.00 | 49 | 1012.4 |
| 20260505212524 | 18 | 224 | 29.0 | 49.9 | 0.00 | 0.00 | 0.00 | 47 | 1012.4 |
| 20260505212003 | 18 | 221 | 30.6 | 49.9 | 0.00 | 0.00 | 0.00 | 47 | 1012.3 |
| 20260505211503 | 19 | 220 | 29.0 | 46.7 | 0.00 | 0.00 | 0.00 | 46 | 1012.3 |
| 20260505211003 | 19 | 219 | 30.6 | 56.3 | 0.00 | 0.00 | 0.00 | 46 | 1012.4 |
| 20260505210503 | 19 | 216 | 29.0 | 56.3 | 0.00 | 0.00 | 0.00 | 46 | 1012.3 |
| 20260505210004 | 20 | 215 | 27.4 | 49.9 | 0.00 | 0.00 | 0.00 | 45 | 1012.2 |
| 20260505205503 | 20 | 217 | 27.4 | 49.9 | 0.00 | 0.00 | 0.00 | 46 | 1012.1 |
| 20260505205003 | 20 | 218 | 29.0 | 49.9 | 0.00 | 0.00 | 0.00 | 44 | 1012.2 |
| 20260505204503 | 20 | 218 | 29.0 | 49.9 | 0.00 | 0.00 | 0.00 | 45 | 1012.2 |
| 20260505204024 | 20 | 218 | 27.4 | 46.7 | 0.00 | 0.00 | 0.00 | 44 | 1012.2 |
| 20260505203524 | 20 | 213 | 27.4 | 43.5 | 0.00 | 0.00 | 0.00 | 44 | 1012.2 |
| 20260505203024 | 20 | 213 | 27.4 | 49.9 | 0.00 | 0.00 | 0.00 | 45 | 1012.0 |
| 20260505202503 | 20 | 218 | 27.4 | 49.9 | 0.00 | 0.00 | 0.00 | 45 | 1012.3 |
| 20260505202003 | 20 | 215 | 29.0 | 46.7 | 0.00 | 0.00 | 0.00 | 45 | 1012.3 |
| 20260505201503 | 20 | 215 | 29.0 | 49.9 | 0.00 | 0.00 | 0.00 | 45 | 1012.2 |
| 20260505201024 | 20 | 220 | 27.4 | 49.9 | 0.00 | 0.00 | 0.00 | 44 | 1012.5 |
| 20260505200503 | 21 | 220 | 24.1 | 48.3 | 0.00 | 0.00 | 0.00 | 44 | 1012.1 |
| 20260505200003 | 21 | 218 | 24.1 | 46.7 | 0.00 | 0.00 | 0.00 | 45 | 1011.8 |
| 20260505195503 | 21 | 217 | 25.7 | 43.5 | 0.00 | 0.00 | 0.00 | 44 | 1011.7 |
| 20260505195003 | 21 | 220 | 25.7 | 49.9 | 0.00 | 0.00 | 0.00 | 46 | 1011.6 |
| 20260505194502 | 20 | 221 | 25.7 | 49.9 | 0.00 | 0.00 | 0.00 | 46 | 1011.7 |
| 20260505194003 | 20 | 213 | 27.4 | 45.1 | 0.00 | 0.00 | 0.00 | 47 | 1011.7 |
| 20260505193503 | 20 | 211 | 30.6 | 46.7 | 0.00 | 0.00 | 0.00 | 46 | 1011.7 |
| 20260505193003 | 20 | 214 | 29.0 | 48.3 | 0.00 | 0.00 | 0.00 | 46 | 1011.8 |
| 20260505192524 | 20 | 214 | 29.0 | 48.3 | 0.00 | 0.00 | 0.00 | 46 | 1011.5 |
| 20260505192003 | 21 | 217 | 30.6 | 54.7 | 0.00 | 0.00 | 0.00 | 45 | 1011.5 |
| 20260505191502 | 21 | 217 | 30.6 | 54.7 | 0.00 | 0.00 | 0.00 | 45 | 1011.7 |
| 20260505191003 | 21 | 210 | 29.0 | 48.3 | 0.00 | 0.00 | 0.00 | 44 | 1011.4 |
| 20260505190503 | 21 | 205 | 27.4 | 46.7 | 0.00 | 0.00 | 0.00 | 44 | 1011.5 |
| 20260505190003 | 21 | 208 | 27.4 | 48.3 | 0.00 | 0.00 | 0.00 | 45 | 1011.4 |
| 20260505185503 | 21 | 215 | 27.4 | 48.3 | 0.00 | 0.00 | 0.00 | 45 | 1011.4 |
| 20260505185003 | 21 | 220 | 25.7 | 45.1 | 0.00 | 0.00 | 0.00 | 45 | 1011.6 |
| 20260505184503 | 21 | 217 | 25.7 | 45.1 | 0.00 | 0.00 | 0.00 | 45 | 1011.5 |
| 20260505184003 | 21 | 212 | 25.7 | 43.5 | 0.00 | 0.00 | 0.00 | 48 | 1011.4 |
| 20260505183503 | 21 | 213 | 24.1 | 43.5 | 0.00 | 0.00 | 0.00 | 47 | 1011.5 |
| 20260505183003 | 21 | 215 | 20.9 | 40.2 | 0.00 | 0.00 | 0.00 | 47 | 1011.4 |
| 20260505182003 | 21 | 199 | 20.9 | 37.0 | 0.00 | 0.00 | 0.00 | 51 | 1011.4 |
| 20260505181503 | 21 | 187 | 20.9 | 40.2 | 0.00 | 0.00 | 0.00 | 51 | 1011.4 |
| 20260505181003 | 21 | 184 | 19.3 | 40.2 | 0.00 | 0.00 | 0.00 | 51 | 1011.5 |
| 20260505180503 | 21 | 186 | 22.5 | 37.0 | 0.00 | 0.00 | 0.00 | 50 | 1011.6 |
| 20260505180003 | 21 | 183 | 22.5 | 37.0 | 0.00 | 0.00 | 0.00 | 50 | 1011.7 |
| 20260505175503 | 21 | 191 | 19.3 | 38.6 | 0.00 | 0.00 | 0.00 | 51 | 1011.5 |
| 20260505175024 | 22 | 204 | 17.7 | 38.6 | 0.00 | 0.00 | 0.00 | 49 | 1011.5 |
| 20260505174503 | 21 | 213 | 19.3 | 32.2 | 0.00 | 0.00 | 0.00 | 48 | 1011.5 |
| 20260505174003 | 21 | 212 | 20.9 | 33.8 | 0.00 | 0.00 | 0.00 | 48 | 1011.5 |
| 20260505173524 | 21 | 201 | 20.9 | 33.8 | 0.00 | 0.00 | 0.00 | 48 | 1011.5 |
| 20260505173003 | 21 | 199 | 19.3 | 30.6 | 0.00 | 0.00 | 0.00 | 50 | 1011.4 |
| 20260505172503 | 21 | 206 | 17.7 | 30.6 | 0.00 | 0.00 | 0.00 | 50 | 1011.5 |
| 20260505172003 | 21 | 216 | 16.1 | 30.6 | 0.00 | 0.00 | 0.00 | 51 | 1011.6 |
| 20260505171503 | 21 | 209 | 17.7 | 30.6 | 0.00 | 0.00 | 0.00 | 53 | 1011.7 |
| 20260505171003 | 20 | 198 | 17.7 | 30.6 | 0.00 | 0.00 | 0.00 | 52 | 1011.7 |
| 20260505170503 | 21 | 206 | 16.1 | 29.0 | 0.00 | 0.00 | 0.00 | 53 | 1011.7 |
| 20260505170003 | 20 | 207 | 16.1 | 29.0 | 0.00 | 0.00 | 0.00 | 52 | 1011.7 |
| 20260505165503 | 20 | 194 | 16.1 | 25.7 | 0.00 | 0.00 | 0.00 | 54 | 1011.6 |
| 20260505165003 | 20 | 185 | 16.1 | 25.7 | 0.00 | 0.00 | 0.00 | 55 | 1011.7 |
| 20260505164524 | 20 | 191 | 16.1 | 27.4 | 0.00 | 0.00 | 0.00 | 55 | 1011.6 |
| 20260505164003 | 19 | 207 | 16.1 | 30.6 | 0.00 | 0.00 | 0.00 | 57 | 1011.6 |
| 20260505163524 | 19 | 208 | 17.7 | 30.6 | 0.00 | 0.00 | 0.00 | 58 | 1011.6 |
| 20260505163003 | 18 | 198 | 19.3 | 33.8 | 0.00 | 0.00 | 0.00 | 56 | 1011.5 |
| 20260505162503 | 18 | 194 | 19.3 | 33.8 | 0.00 | 0.00 | 0.00 | 57 | 1011.5 |
| 20260505162024 | 18 | 196 | 17.7 | 32.2 | 0.00 | 0.00 | 0.00 | 56 | 1011.4 |
| 20260505161503 | 18 | 188 | 19.3 | 32.2 | 0.00 | 0.00 | 0.00 | 57 | 1011.5 |
| 20260505161003 | 18 | 188 | 17.7 | 35.4 | 0.00 | 0.00 | 0.00 | 56 | 1011.5 |
| 20260505160503 | 18 | 194 | 17.7 | 35.4 | 0.00 | 0.00 | 0.00 | 58 | 1011.5 |
| 20260505153003 | 18 | 207 | 17.7 | 32.2 | 0.00 | 0.00 | 0.00 | 55 | 1011.5 |
| 20260505152524 | 18 | 203 | 17.7 | 32.2 | 0.00 | 0.00 | 0.00 | 56 | 1011.4 |
| 20260505152003 | 18 | 209 | 16.1 | 29.0 | 0.00 | 0.00 | 0.00 | 59 | 1011.3 |
| 20260505151503 | 18 | 214 | 16.1 | 33.8 | 0.00 | 0.00 | 0.00 | 56 | 1011.3 |
| 20260505151003 | 18 | 213 | 17.7 | 33.8 | 0.00 | 0.00 | 0.00 | 56 | 1011.4 |
| 20260505150503 | 18 | 205 | 19.3 | 33.8 | 0.00 | 0.00 | 0.00 | 56 | 1011.3 |
| 20260505140503 | 16 | 221 | 19.3 | 32.2 | 0.00 | 0.00 | 0.00 | 61 | 1011.9 |
| 20260505125003 | 12 | 239 | 20.9 | 33.8 | 0.00 | 0.00 | 0.00 | 64 | 1011.2 |
| 20260505124503 | 13 | 236 | 17.7 | 32.2 | 0.00 | 0.00 | 0.00 | 63 | 1011.3 |
| 20260505124003 | 12 | 235 | 16.1 | 32.2 | 0.00 | 0.00 | 0.00 | 66 | 1011.3 |
| 20260505123503 | 12 | 236 | 19.3 | 30.6 | 0.00 | 0.00 | 0.00 | 65 | 1011.2 |
| 20260505123003 | 12 | 233 | 19.3 | 30.6 | 0.00 | 0.00 | 0.00 | 66 | 1011.0 |
| 20260505122524 | 12 | 226 | 17.7 | 30.6 | 0.00 | 0.00 | 0.00 | 66 | 1011.1 |
| 20260505122003 | 12 | 222 | 17.7 | 32.2 | 0.00 | 0.00 | 0.00 | 66 | 1011.0 |
| 20260505121503 | 12 | 225 | 19.3 | 32.2 | 0.00 | 0.00 | 0.00 | 67 | 1011.1 |
| 20260505121004 | 12 | 227 | 17.7 | 30.6 | 0.00 | 0.00 | 0.00 | 68 | 1011.1 |
| 20260505120503 | 12 | 227 | 16.1 | 29.0 | 0.00 | 0.00 | 0.00 | 69 | 1011.0 |
| 20260505120003 | 12 | 229 | 14.5 | 25.7 | 0.00 | 0.00 | 0.00 | 69 | 1010.9 |
| 20260505115503 | 12 | 225 | 12.9 | 24.1 | 0.00 | 0.00 | 0.00 | 70 | 1011.0 |
| 20260505115003 | 11 | 221 | 12.9 | 24.1 | 0.00 | 0.00 | 0.00 | 71 | 1011.1 |
| 20260505114503 | 11 | 223 | 12.9 | 27.4 | 0.00 | 0.00 | 0.00 | 71 | 1011.1 |
| 20260505114003 | 11 | 217 | 11.3 | 27.4 | 0.00 | 0.00 | 0.00 | 72 | 1011.1 |
| 20260505113524 | 11 | 223 | 14.5 | 27.4 | 0.00 | 0.00 | 0.00 | 74 | 1011.2 |
| 20260505113003 | 11 | 233 | 14.5 | 27.4 | 0.00 | 0.00 | 0.00 | 74 | 1011.2 |
| 20260505112503 | 10 | 231 | 12.9 | 24.1 | 0.00 | 0.00 | 0.00 | 76 | 1011.2 |
| 20260505112003 | 10 | 233 | 12.9 | 22.5 | 0.00 | 0.00 | 0.00 | 75 | 1011.2 |
| 20260505111504 | 10 | 239 | 14.5 | 25.7 | 0.00 | 0.00 | 0.00 | 76 | 1011.1 |
| 20260505111024 | 10 | 236 | 14.5 | 25.7 | 0.00 | 0.00 | 0.00 | 78 | 1011.0 |
| 20260505110503 | 10 | 234 | 14.5 | 25.7 | 0.00 | 0.00 | 0.00 | 78 | 1010.8 |
| 20260505102003 | 7 | 213 | 9.7 | 16.1 | 0.00 | 0.00 | 0.00 | 84 | 1010.6 |
| 20260505101503 | 7 | 215 | 11.3 | 19.3 | 0.00 | 0.00 | 0.00 | 85 | 1010.4 |
| 20260505101003 | 7 | 212 | 11.3 | 19.3 | 0.00 | 0.00 | 0.00 | 85 | 1010.4 |
| 20260505100503 | 7 | 209 | 11.3 | 25.7 | 0.00 | 0.00 | 0.00 | 86 | 1010.4 |
| 20260505100024 | 7 | 212 | 11.3 | 25.7 | 0.00 | 0.00 | 0.00 | 86 | 1010.3 |
| 20260505095524 | 6 | 216 | 11.3 | 19.3 | 0.00 | 0.00 | 0.00 | 87 | 1010.1 |
| 20260505095003 | 6 | 215 | 9.7 | 19.3 | 0.00 | 0.00 | 0.00 | 87 | 1010.1 |
| 20260505094503 | 6 | 211 | 11.3 | 19.3 | 0.00 | 0.00 | 0.00 | 88 | 1010.1 |
| 20260505094003 | 6 | 207 | 11.3 | 19.3 | 0.00 | 0.00 | 0.00 | 88 | 1010.0 |
| 20260505093504 | 6 | 205 | 11.3 | 16.1 | 0.00 | 0.00 | 0.00 | 88 | 1009.9 |
| 20260505093003 | 6 | 206 | 11.3 | 17.7 | 0.00 | 0.00 | 0.00 | 88 | 1009.7 |
| 20260505092503 | 6 | 209 | 11.3 | 19.3 | 0.00 | 0.00 | 0.00 | 88 | 1009.9 |
| 20260505092003 | 6 | 213 | 12.9 | 19.3 | 0.00 | 0.00 | 0.00 | 88 | 1009.9 |
| 20260505091504 | 5 | 216 | 11.3 | 22.5 | 0.00 | 0.00 | 0.00 | 88 | 1009.7 |
| 20260505091003 | 5 | 218 | 12.9 | 22.5 | 0.00 | 0.00 | 0.00 | 89 | 1009.7 |
| 20260505090503 | 5 | 218 | 12.9 | 20.9 | 0.00 | 0.00 | 0.00 | 88 | 1009.6 |
| 20260505090024 | 6 | 219 | 11.3 | 17.7 | 0.00 | 0.00 | 0.00 | 88 | 1009.5 |
| 20260505085503 | 6 | 221 | 11.3 | 22.5 | 0.00 | 0.00 | 0.00 | 88 | 1009.3 |
| 20260505085024 | 6 | 222 | 11.3 | 22.5 | 0.00 | 0.00 | 0.00 | 88 | 1009.3 |